SCP
1 0 0 0 0 0 0 0 0 0 0 0 0 0 0 0 0 0 0 0 0 0 0 0 0 0 0 0 0 0 0 0 0 0 0 0 0 0 0 0 0 0 0
1 1 1 0 0 0 0 0 0 0 0 0 0 0 0 0 0 0 0 0 0 0 0 0 0 0 0 0 0 0 -0 -0 0 0 0 0 0 0 0 0 0 0 0
1 1 1 0 0 0 0 0 0 0 0 0 0 0 0 0 0 0 0 0 0 0 0 0 0 0 0 0 -0 -0 -0 -0 -0 -0 0 0 0 0 0 0 0 0 0
1 1 1 1 0 0 0 0 0 0 0 0 0 0 0 0 0 0 0 0 0 0 0 0 0 0 0 0 -0 -0 -0 -0 -0 -0 0 0 0 0 0 0 0 0 0
1 1 1 1 0 0 0 0 0 0 0 0 0 0 0 0 0 0 0 0 0 0 0 0 0 0 0 0 -0 -0 -0 -0 -0 0 0 0 0 0 0 0 0 0 0
1 1 1 1 0 0 0 0 0 0 0 0 0 0 0 0 0 0 0 0 0 0 0 0 0 0 0 0 -0 -0 -0 -0 0 0 0 0 0 0 0 0 0 0 0
1 1 1 1 0 0 0 0 0 0 0 0 0 0 0 0 0 0 0 0 0 0 0 0 0 0 0 0 -0 -0 -0 0 0 0 0 0 0 0 0 0 0 0 0
1 1 1 1 0 0 0 0 0 0 0 0 0 0 0 0 0 0 0 0 0 0 0 0 0 0 0 0 -0 -0 -0 0 0 0 0 0 0 0 0 0 0 0 0
1 1 1 0 0 0 0 0 0 0 0 0 0 0 0 0 0 0 0 0 0 0 0 0 0 0 0 0 -0 -0 0 0 0 0 0 0 0 0 0 0 0 0 0
1 1 0 0 0 0 0 0 0 0 0 0 0 0 0 0 0 0 0 0 0 0 0 0 0 0 0 0 0 0 0 0 0 0 0 0 0 0 0 0 0 0 0
1 1 1 0 0 0 0 0 0 0 0 0 0 0 0 0 0 0 0 0 0 0 0 0 0 0 0 0 0 0 0 0 0 0 0 0 0 0 0 0 0 0 0
1 1 1 1 0 0 0 0 0 0 0 0 0 0 0 0 0 0 0 0 0 0 0 0 0 0 0 0 0 0 0 0 0 0 0 0 0 0 0 0 0 0 0
1 1 1 1 1 1 0 0 0 0 0 0 0 0 0 0 0 0 0 0 0 0 0 0 0 0 0 0 0 0 0 0 0 0 0 0 0 0 0 0 0 0 0
2 2 1 1 1 1 1 1 0 0 0 0 0 0 0 0 0 0 0 0 0 0 0 0 0 0 0 0 0 0 0 0 0 0 0 0 0 0 0 0 0 0 0
2 2 2 2 2 1 1 1 1 1 0 0 0 0 0 0 0 0 0 0 0 0 0 0 0 0 0 0 0 0 0 0 0 0 0 0 0 0 0 0 0 0 0
2 2 2 2 2 2 1 1 1 1 0 0 0 0 0 0 0 0 0 0 0 0 0 0 0 0 0 0 0 0 0 0 0 0 0 0 0 0 0 0 0 0 0
2 2 2 2 2 1 1 1 1 1 0 0 0 0 0 0 0 0 0 0 0 0 0 0 0 0 0 0 0 0 0 0 0 0 0 0 0 0 0 0 0 0 0
2 2 2 2 1 1 1 1 1 1 1 0 0 0 0 0 0 0 0 0 0 0 0 0 0 0 0 0 0 0 0 0 0 0 0 0 0 0 0 0 0 0 0
2 2 2 2 1 1 1 1 1 1 1 0 0 0 0 0 0 0 0 0 0 0 0 0 0 0 0 0 0 0 0 0 0 0 0 0 0 0 0 0 0 0 0
1 1 1 1 1 1 1 1 1 1 1 0 0 0 0 0 0 0 0 0 0 0 0 0 0 0 0 0 0 0 0 0 0 0 0 0 0 0 0 0 0 0 0
1 1 1 1 1 1 1 1 1 0 0 0 0 0 0 0 0 0 0 0 0 0 0 0 0 0 0 0 0 0 0 0 0 0 0 0 0 0 0 0 0 0 0
1 1 1 1 1 1 1 1 1 0 0 0 0 0 0 0 0 0 0 0 0 0 0 0 0 0 0 0 0 0 0 0 0 0 0 0 0 0 0 0 0 0 0
1 1 1 1 1 1 1 1 0 0 0 0 0 0 0 0 0 0 0 0 0 0 0 0 0 0 0 0 0 0 0 0 0 0 0 0 0 0 0 0 0 0 0
0 0 1 1 1 1 1 1 0 0 0 0 0 0 0 0 0 0 0 0 0 0 0 0 0 0 0 0 0 0 0 0 0 0 0 0 0 0 0 0 0 0 0
0 0 0 1 1 1 1 1 0 0 0 0 0 0 0 0 0 0 0 0 0 0 0 0 0 0 0 0 0 0 0 0 0 0 0 0 0 0 0 0 0 0 0
0 0 0 1 1 1 1 1 0 0 0 0 0 0 0 0 0 0 0 0 0 0 0 0 0 0 0 0 0 0 0 0 0 0 0 0 0 0 0 0 0 0 0
Wind_Speed
19 18 17 15 14 14 13 13 13 13 13 13 12 12 12 12 12 12 12 12 12 12 12 11 11 11 11 11 11 11 11 10 11 12 13 13 12 11 10 11 13 12 14
22 19 18 16 14 14 14 13 13 13 13 12 12 12 12 11 11 11 11 12 12 12 12 12 11 11 11 11 10 9 8 8 8 10 12 12 12 11 10 10 12 10 13
22 19 17 16 15 14 14 13 13 13 13 12 12 11 11 11 11 11 11 12 12 12 12 11 11 11 11 10 9 8 6 6 6 7 9 8 9 11 13 14 15 13 12
21 18 16 17 15 15 14 14 13 13 13 12 11 11 11 11 10 11 11 11 11 11 11 11 11 11 10 9 8 6 4 3 2 3 3 6 8 12 12 13 13 12 11
19 17 17 18 16 15 14 13 13 13 13 12 11 11 10 10 10 10 10 11 11 11 11 11 10 10 9 8 6 4 2 2 3 3 4 8 8 11 12 12 12 11 11
19 18 18 18 17 15 14 13 13 13 12 12 11 10 10 10 10 10 10 10 10 10 10 10 9 9 8 7 5 3 3 5 6 1 6 9 8 10 12 11 11 11 10
19 18 17 18 17 15 14 14 13 13 12 11 11 10 9 9 9 9 9 9 9 9 9 8 8 7 7 6 4 3 5 7 5 2 8 9 9 11 11 11 10 10 10
20 18 16 17 17 15 14 13 13 12 11 11 10 9 9 9 9 8 8 8 8 8 7 7 7 6 5 4 3 4 6 8 4 4 9 10 11 12 11 10 9 9 9
20 18 15 15 14 15 14 13 13 12 11 10 9 9 9 8 8 8 7 7 7 6 6 5 5 4 3 2 1 4 7 8 6 1 9 8 12 12 11 10 9 9 9
18 18 15 15 13 12 12 13 12 12 11 10 9 9 8 8 8 7 8 7 6 5 4 3 3 2 2 2 3 5 8 9 4 4 7 8 13 13 12 10 9 8 8
15 15 16 16 13 12 12 13 12 12 10 10 8 8 7 5 6 6 8 8 6 5 3 3 2 3 4 5 6 7 7 5 1 5 7 12 13 13 11 10 9 8 7
13 14 12 14 12 11 10 10 8 8 8 7 5 6 5 3 3 6 8 8 6 5 4 4 4 5 6 4 6 7 4 4 1 4 7 14 13 13 11 10 9 8 7
12 12 12 12 10 8 6 7 5 4 5 5 5 4 3 2 3 5 3 4 4 5 3 3 4 3 2 1 1 2 3 2 2 4 7 11 11 12 11 10 9 9 8
10 11 12 11 8 6 6 5 5 4 4 3 3 2 3 2 2 3 2 1 1 1 1 1 1 0 1 2 2 2 3 2 2 4 6 10 9 10 10 10 9 9 9
8 9 10 9 7 6 5 3 4 4 4 5 3 2 3 3 3 3 2 1 0 1 1 1 1 1 1 1 2 2 3 3 3 3 4 9 9 8 9 10 10 10 9
8 8 10 9 9 7 5 3 3 4 3 4 4 4 3 4 3 2 2 1 2 2 2 1 1 0 0 0 1 1 1 2 2 2 2 5 8 8 8 9 10 10 10
9 8 9 9 9 7 6 4 4 3 4 5 5 4 4 4 2 1 2 1 2 1 1 1 1 1 1 1 1 0 1 1 1 2 1 2 4 7 8 8 8 9 10
10 9 9 10 10 7 5 3 3 3 4 5 5 4 4 3 2 1 2 3 1 1 1 0 1 2 2 1 1 1 1 0 1 2 2 2 2 3 7 10 9 9 10
10 10 8 8 9 8 6 4 3 4 4 4 5 4 3 3 2 1 3 2 1 0 1 2 3 2 2 2 1 1 1 1 1 2 1 1 2 3 4 7 10 10 11
11 10 9 9 8 8 6 4 4 4 4 4 4 4 4 3 2 1 3 2 1 2 2 3 2 1 1 2 3 1 1 1 1 1 1 1 1 2 3 5 5 6 10
11 10 9 9 8 6 5 5 4 4 4 4 4 5 4 3 3 1 3 2 1 3 3 2 2 1 1 0 2 2 2 2 2 1 1 1 1 1 2 3 3 3 3
10 10 10 10 9 7 5 4 4 4 4 4 4 4 4 4 4 3 2 2 2 2 2 2 2 2 2 1 1 2 1 2 0 2 1 1 3 2 1 2 3 3 2
11 11 10 10 10 8 7 5 4 4 2 4 5 4 4 4 3 2 2 1 1 1 2 1 1 1 2 1 2 2 2 2 0 1 1 3 2 1 1 1 2 3 2
12 11 10 10 10 8 8 7 8 6 5 5 5 5 5 4 4 4 3 2 0 0 2 1 2 2 1 2 1 0 1 2 1 1 0 2 2 1 1 1 2 2 3
14 12 11 10 10 9 8 8 7 6 5 5 5 7 6 5 4 4 4 3 2 0 2 2 2 1 2 3 2 1 1 0 2 1 0 1 1 2 2 2 1 1 2
13 13 13 12 10 10 9 8 8 7 5 6 6 7 5 4 4 5 4 3 2 2 2 1 0 1 1 2 3 3 2 1 1 1 1 1 1 1 2 2 1 1 1
Wind_Direction
126 127 128 126 126 125 123 121 119 116 113 109 106 102 99 96 93 90 89 89 88 88 87 85 81 78 76 74 73 73 77 82 88 93 94 94 93 92 93 102 105 96 100
124 128 127 125 126 126 124 121 120 118 116 113 109 106 102 98 96 93 92 92 90 89 87 83 81 81 79 80 79 80 85 93 100 108 108 101 94 89 88 95 96 104 106
123 128 128 125 126 125 123 123 121 119 118 115 112 110 107 104 101 97 95 94 92 90 87 86 84 80 79 81 82 83 89 97 110 128 131 113 102 92 92 96 102 108 108
126 134 130 127 126 125 125 125 124 122 120 117 115 113 111 108 104 99 96 95 93 91 88 86 83 81 80 80 81 82 81 84 112 165 165 126 109 101 101 105 110 113 112
128 128 128 131 128 128 127 127 126 125 123 121 118 114 110 109 105 102 99 96 94 92 90 88 85 82 82 80 76 68 40 353 308 252 119 100 96 110 110 112 114 115 116
128 128 131 132 130 131 130 130 129 127 127 125 122 118 113 109 107 103 100 96 95 94 92 90 88 83 81 79 69 41 354 329 309 169 114 111 109 114 116 117 118 118 118
131 129 135 135 133 134 134 134 133 131 130 130 126 122 117 112 109 105 102 99 98 97 95 92 90 85 79 73 54 7 333 322 298 107 109 107 115 119 117 118 119 120 119
131 131 134 137 137 137 138 138 137 135 134 132 129 125 120 117 114 111 107 104 102 100 101 99 95 90 82 70 37 342 326 318 342 106 113 113 126 125 122 119 119 122 123
131 132 142 142 142 142 143 143 141 139 138 136 135 131 130 127 127 126 119 114 111 110 109 107 104 100 96 79 340 311 309 311 305 129 120 119 131 130 129 127 127 126 126
136 141 147 147 147 150 148 148 145 144 144 144 144 146 147 147 148 148 142 128 123 123 128 130 133 143 170 222 262 280 294 302 281 99 105 126 135 135 135 136 136 134 134
142 146 152 149 153 156 155 150 151 152 153 154 159 167 170 173 164 168 135 137 143 147 155 169 188 210 223 226 240 261 279 270 319 107 119 145 145 141 142 143 144 144 141
145 148 146 148 155 163 155 149 160 163 158 176 165 172 187 176 151 135 134 150 163 175 186 204 224 240 238 230 221 241 261 269 59 117 132 148 145 145 148 151 153 152 149
151 147 144 142 153 151 136 157 155 151 153 174 155 163 159 136 124 122 145 155 184 196 203 189 221 240 247 298 230 241 291 345 64 104 134 142 143 146 152 158 161 163 161
155 147 142 142 143 132 138 140 138 138 143 133 141 162 121 96 91 102 104 137 187 166 158 173 223 49 352 338 334 321 336 350 49 102 138 143 147 154 160 166 171 174 170
150 139 132 135 126 113 106 129 132 121 133 132 132 90 100 106 84 84 71 51 53 81 86 39 47 35 16 341 317 341 347 356 19 77 135 146 149 159 169 174 179 183 180
151 137 130 134 125 121 118 106 113 122 124 116 110 94 79 79 76 91 102 54 45 56 50 352 355 329 355 65 294 338 333 354 30 38 124 150 158 164 171 178 185 189 188
153 143 136 138 133 135 137 148 135 131 123 110 105 99 89 90 89 83 101 89 49 42 58 23 350 300 235 230 217 301 265 39 48 24 354 153 164 182 183 183 188 193 197
155 149 151 147 141 139 133 143 134 125 118 118 118 107 100 102 95 66 82 73 32 353 24 67 18 347 17 7 19 336 35 118 182 208 235 202 171 177 186 190 192 196 201
156 151 149 133 139 142 142 145 121 109 118 122 119 118 122 116 107 91 83 72 284 46 42 17 56 25 356 6 305 216 206 203 185 229 211 220 178 167 168 184 192 199 206
154 151 143 136 141 144 145 144 128 128 133 125 119 125 137 130 110 112 115 88 337 59 52 50 22 42 310 328 309 30 211 170 186 87 277 230 172 175 167 167 179 204 213
150 150 147 145 147 149 150 151 146 152 147 133 135 140 146 137 126 16 99 119 42 74 61 43 9 301 225 36 307 273 193 176 134 112 42 22 70 90 113 147 162 172 196
155 153 151 155 156 160 155 152 156 147 154 142 134 143 154 149 156 161 108 138 94 104 81 43 32 333 333 71 329 305 153 108 322 125 125 125 57 48 59 131 144 155 182
166 165 164 164 160 166 157 154 149 133 149 136 141 158 163 160 160 104 128 103 124 156 128 108 0 349 343 352 40 354 357 54 148 117 101 84 67 33 18 71 123 135 141
175 171 164 164 162 167 164 167 163 168 177 165 161 157 165 170 162 156 163 139 223 56 123 187 112 330 319 313 124 101 60 60 346 77 186 129 163 152 86 22 59 103 120
176 174 167 165 166 168 175 171 177 181 177 161 158 149 166 169 177 175 168 159 176 139 104 69 85 350 334 340 344 344 43 178 258 243 145 176 217 165 154 146 106 83 123
174 171 168 168 171 173 179 177 189 189 176 161 160 155 177 169 182 181 175 166 188 176 139 144 164 171 4 1 347 344 350 347 337 353 344 273 237 153 143 132 152 165 155